Location: Bauersach School (historical)
(38.0926°N, 89.4806°W)
Time: 03:22:36
(UTC+00:00)

COSMO-SKYMED 1 - Pass Details

Date: 11 December 2025
Orbit: 578 x 580 km, 97.9° (Epoch: 15 January)

Event Time Altitude Azimuth Distance (km) Brightness Sun altitude
Rises 12:31:56 0° 206° (SSW) 2,784 5.9 -6.5°
Reaches altitude 10° 12:34:47 10° 228° (SW) 1,891 4.8 -6.0°
Maximum altitude 12:37:21 16° 267° (W) 1,538 4.1 -5.6°
Drops below altitude 10° 12:39:56 10° 306° (NW) 1,900 4.4 -5.1°
Enters shadow 12:42:07 - 324° (NW) 2,558 5.2 -4.7°
